Location: Grand Rapids
(42.9630°N, 85.6680°W)
Time: 02:15:13
(UTC-04:00)

S-56A Canister/Altair - Pass Details

Date: 01 June 2024
Orbit: 637 x 2489 km, 38.9° (Epoch: 21 June)

Event Time Altitude Azimuth Distance (km) Brightness Sun altitude
Rises 11:43:17 0° 282° (WNW) 5,374 11.5 58.0°
Reaches altitude 10° 11:48:30 10° 268° (W) 4,004 11.0 58.8°
Maximum altitude 11:54:43 18° 229° (SW) 2,895 10.6 59.7°
Drops below altitude 10° 11:59:41 10° 189° (S) 3,071 10.9 60.5°
Sets 12:02:59 0° 170° (S) 3,742 11.4 61.0°
